Location: Staunton
(38.1490°N, 79.0720°W)
Time: 06:01:17
(UTC-05:00)

ISS - Pass Details

Date: 21 September 2018
Orbit: 401 x 408 km, 51.6° (Epoch: 19 November)

Event Time Altitude Azimuth Distance (km) Brightness Sun altitude
Rises 19:34:11 0° 191° (S) 2,328 0.1 -4.6°
Reaches altitude 10° 19:36:52 10° 167° (SSE) 1,472 -1.2 -5.2°
Maximum altitude 19:38:53 15° 129° (SE) 1,193 -1.9 -5.6°
Drops below altitude 10° 19:40:55 10° 91° (E) 1,477 -1.7 -6.0°
Enters shadow 19:41:38 - 83° (E) 1,678 -1.3 -6.1°
